Ogden, UT

5:08 PM MDT on October 01, 2016 (GMT -0600)
Ogden-Hinckley

Weather History for KOGD - April, 2013

Change the Weather History Date:

Friday, April 12, 2013

  Actual Average Record
Temperature  
Mean Temperature 46 °F -  
Max Temperature 57 °F 60 °F 81 °F (1934)
Min Temperature 37 °F 35 °F 24 °F (1947)
Degree Days  
Heating Degree Days 19    
Moisture  
Dew Point 23 °F    
Average Humidity 41    
Maximum Humidity 76    
Minimum Humidity 15    
Precipitation  
Precipitation 0.00 in - - ()
Sea Level Pressure  
Sea Level Pressure 29.89 in    
Wind  
Wind Speed 5 mph (South)    
Max Wind Speed 12 mph    
Max Gust Speed -    
Visibility 10 miles    
Events      
Averages and records for this station are not official NWS values.
T = Trace of Precipitation, MM = Missing Value Source: NWS Daily Summary

Daily Weather History Graph

Daily Weather History Graph

Search for Another Location

Airport or City:

Trip Planner

Search our weather history database for the weather conditions in past years. The results will help you decide how hot, cold, wet, or windy it might be!

Date:

Astronomy

Apr. 12, 2013 Rise Set
Actual Time 6:52 AM MDT 8:05 PM MDT
Civil Twilight 6:24 AM MDT 8:33 PM MDT
Nautical Twilight 5:50 AM MDT 9:07 PM MDT
Astronomical Twilight 5:14 AM MDT 9:43 PM MDT
Moon 8:03 AM MDT (4/12) 10:40 PM MDT (4/12)
Length of Visible Light 14h 09m
Length of Day
13h 12m
Waxing Crescent, 5% of the Moon is Illuminated
Apr 12
Waxing Crescent
Apr 18
First Quarter
Apr 25
Full
May 2
Last Quarter
May 9
New

Hourly Weather History & Observations

Time (MDT) Temp. Windchill Dew Point Humidity Pressure Visibility Wind Dir Wind Speed Gust Speed Precip Events Conditions
12:53 AM 45.0 °F 41.8 °F 30.9 °F 58% 29.88 in 10.0 mi SSE 5.8 mph - N/A   Clear
1:53 AM 42.1 °F 37.7 °F 30.9 °F 65% 29.89 in 10.0 mi South 6.9 mph - N/A   Clear
2:53 AM 39.9 °F 35.1 °F 30.9 °F 70% 29.87 in 10.0 mi South 6.9 mph - N/A   Clear
3:53 AM 39.0 °F - 30.0 °F 70% 29.89 in 10.0 mi Calm Calm - N/A   Clear
4:53 AM 37.0 °F 33.3 °F 30.0 °F 76% 29.90 in 10.0 mi SSE 4.6 mph - N/A   Clear
5:53 AM 41.0 °F - 25.0 °F 53% 29.90 in 10.0 mi Calm Calm - N/A   Clear
6:53 AM 39.9 °F 35.8 °F 21.0 °F 47% 29.90 in 10.0 mi North 5.8 mph - N/A   Clear
7:53 AM 42.1 °F - 27.0 °F 55% 29.93 in 10.0 mi Calm Calm - N/A   Clear
8:53 AM 46.9 °F - 23.0 °F 39% 29.94 in 10.0 mi North 6.9 mph - N/A   Clear
9:53 AM 48.9 °F - 24.1 °F 38% 29.96 in 10.0 mi North 6.9 mph - N/A   Clear
10:53 AM 50.0 °F - 23.0 °F 35% 29.99 in 10.0 mi Variable 3.5 mph - N/A   Clear
11:53 AM 51.1 °F - 24.1 °F 35% 29.98 in 10.0 mi West 3.5 mph - N/A   Clear
12:53 PM 54.0 °F - 24.1 °F 31% 29.97 in 10.0 mi WSW 5.8 mph - N/A   Clear
1:53 PM 55.9 °F - 25.0 °F 30% 29.96 in 10.0 mi Variable 5.8 mph - N/A   Clear
2:53 PM 55.0 °F - 21.9 °F 28% 29.93 in 10.0 mi Calm Calm - N/A   Clear
3:53 PM 55.9 °F - 21.0 °F 26% 29.91 in 10.0 mi SW 11.5 mph - N/A   Clear
4:53 PM 55.9 °F - 23.0 °F 28% 29.88 in 10.0 mi SSW 6.9 mph - N/A   Clear
5:53 PM 55.9 °F - 14.0 °F 19% 29.86 in 10.0 mi SSW 9.2 mph - N/A   Clear
6:53 PM 55.9 °F - 9.0 °F 15% 29.84 in 10.0 mi Calm Calm - N/A   Clear
7:53 PM 54.0 °F - 15.1 °F 22% 29.82 in 10.0 mi SE 4.6 mph - N/A   Clear
8:53 PM 51.1 °F - 21.0 °F 31% 29.81 in 10.0 mi SSE 4.6 mph - N/A   Clear
9:53 PM 50.0 °F - 23.0 °F 35% 29.80 in 10.0 mi South 8.1 mph - N/A   Clear
10:53 PM 50.0 °F - 21.9 °F 33% 29.79 in 10.0 mi South 8.1 mph - N/A   Clear
11:53 PM 48.9 °F - 24.1 °F 38% 29.78 in 10.0 mi SSE 9.2 mph - N/A   Clear